Meteopurmerend
purmerend
Purmerend - Baaienwijk



My webcam  My webcam


waarschuwing voor Onweer Meer informatie blitzortung!


Regen radar Meer informatie rain snow radar


Bezoek onze andere website:

CandyAppleRed WebdesignWebdesign Purmerend Candy Apple Red

MeteopurmerendBlog

Template documentation
and downloads



Onweer van: 19-06-2019 18:00 tot: 23:00 waarschuwing voor: Onweer niveau: Geel info button
Enkele onweersbuien, mogelijk met hagel en windstoten tot ca. 75 km/uur.Verkeer en buitenactiviteiten kunnen hinder ondervinden.Mijd open water en open gebied, schuil niet onder bomen.Volg weerberichten en waarschuwingen.

15 daagse weersverwachting Wiener Neustadt (AT)

  • Overzicht
  • Per uur
  • 15 dagen
  • Extra
  • Vergelijk
  • Kaarten
  • Dagkaart
  • Meer »
  • Info
  • Statistieken
  • Directe link
    Temp 6h Neerslag Wind  
 04:57     20:56    Daglengte: 15:59 Vandaag
20:00
24°
 
1
 04:57     20:57    Daglengte: 16:00 Morgen
02:00
19°
 
1
08:00
22°
 
1
14:00
27°
1.6 mm
2
20:00
26°
1.3 mm
2
 04:58     20:57    Daglengte: 15:59 Vrijdag 21 Jun
02:00
19°
 
1
08:00
21°
 
3
14:00
26°
4.7 mm
3
20:00
22°
 
2
 04:58     20:57    Daglengte: 15:59 Zaterdag 22 Jun
02:00
19°
 
3
08:00
20°
 
3
14:00
24°
6.3 mm
3
warningclass
Locatie info
Region: Niederösterreich
Latitude: 47.8129°N
Longitude: 16.2455°E
269 masl
Postcode: 2700
Temp/Neerslag /Baro Onweer/Dauwpunt
    Temp Baro 1h Neerslag Dauwpunt Wind UV Bewolking  
 04:57     20:56    Daglengte: 15:59 Vandaag
20:00
24°
1010.5 hPa
48%
17.6°
1
Windvlaag: 1.3 m/s
39%
21:00
23°
1010.7 hPa
15%
18.2°
2
Windvlaag: 1.3 m/s
49%
22:00
22°
1011.0 hPa
13%
18.4°
1
Windvlaag: 0.9 m/s
41%
23:00
20°
1011.1 hPa
13%
18.4°
1
Windvlaag: 0.8 m/s
41%
 04:57     20:57    Daglengte: 16:00 Morgen
00:00
20°
1011.2 hPa
13%
18.1°
1
Windvlaag: 0.4 m/s
41%
01:00
19°
1011.1 hPa
13%
17.9°
1
Windvlaag: 0.7 m/s
29%
02:00
19°
1011.0 hPa
13%
17.8°
1
Windvlaag: 0.3 m/s
20%
03:00
18°
1011.0 hPa
13%
17.0°
1
Windvlaag: 0.3 m/s
9%
04:00
17°
1011.2 hPa
13%
16.7°
1
Windvlaag: 0.2 m/s
5%
05:00
17°
1011.3 hPa
13%
16.6°
1
Windvlaag: 0.3 m/s
16%
06:00
18°
1011.6 hPa
13%
16.8°
1
Windvlaag: 0.5 m/s
14%
07:00
20°
1011.6 hPa
13%
17.2°
1
Windvlaag: 0.4 m/s
16%
08:00
22°
1011.7 hPa
13%
18.0°
1
Windvlaag: -0 m/s
14%
09:00
23°
1011.8 hPa
13%
18.6°
2
Windvlaag: -0.2 m/s
10%
10:00
25°
1011.6 hPa
13%
18.6°
2
Windvlaag: -0.6 m/s
7%
11:00
27°
1011.5 hPa
20%
18.4°
2
Windvlaag: -1 m/s
13%
12:00
28°
1011.2 hPa
30%
18.2°
2
Windvlaag: -1.8 m/s
12%
13:00
28°
1011.0 hPa
73%
17.9°
2
Windvlaag: -2.2 m/s
26%
14:00
27°
1010.7 hPa 1.6 mm
77%
17.1°
2
Windvlaag: -2.1 m/s
47%
15:00
26°
1010.8 hPa 1.3 mm
80%
15.3°
2
Windvlaag: 0.4 m/s
35% warningclass
16:00
27°
1010.5 hPa
37%
14.9°
2
Windvlaag: 0.3 m/s
35%
17:00
28°
Voelt als: 27.8°
1010.3 hPa
17%
14.5°
1
Windvlaag: 0.3 m/s
30%
18:00
27°
1010.3 hPa
15%
16.2°
2
Windvlaag: 0.3 m/s
38%
19:00
27°
1010.7 hPa
22%
17.8°
2
Windvlaag: 0.3 m/s
31%
20:00
26°
1011.1 hPa
28%
19.2°
2
Windvlaag: 0.3 m/s
26%
21:00
23°
1011.8 hPa
82%
18.5°
2
Windvlaag: 0.4 m/s
37%
22:00
22°
1012.2 hPa
72%
18.8°
1
Windvlaag: 0.6 m/s
42%
23:00
21°
1013.1 hPa
56%
18.5°
1
Windvlaag: 1 m/s
36%
 04:58     20:57    Daglengte: 15:59 Vrijdag 21 Jun
00:00
20°
1013.1 hPa
14%
17.9°
1
Windvlaag: 0.7 m/s
33%
01:00
19°
1013.4 hPa
18%
17.2°
2
Windvlaag: 0.9 m/s
43%
02:00
19°
1013.4 hPa
66%
17.0°
1
Windvlaag: 0.9 m/s
45%
03:00
19°
1013.3 hPa
63%
16.6°
2
Windvlaag: 0.9 m/s
18%
04:00
19°
1013.7 hPa
60%
16.1°
2
Windvlaag: 0.8 m/s
14%
05:00
18°
1013.9 hPa
29%
16.0°
2
Windvlaag: 0.7 m/s
39%
06:00
19°
1014.2 hPa
22%
15.9°
2
Windvlaag: 0.6 m/s
23%
07:00
20°
1014.7 hPa
57%
16.2°
3
Windvlaag: 0.8 m/s
25%
08:00
21°
1014.9 hPa
16%
16.6°
3
Windvlaag: -0.1 m/s
31%
09:00
22°
1014.9 hPa 1.8 mm
20%
17.1°
3
Windvlaag: -0.6 m/s
38%
10:00
23°
1015.1 hPa
21%
16.3°
3
Windvlaag: -0.8 m/s
37%
11:00
24°
1015.1 hPa 2.0 mm
75%
16.2°
3
Windvlaag: -0.9 m/s
32%
12:00
25°
1015.1 hPa
70%
16.1°
3
Windvlaag: -0.9 m/s
42%
13:00
26°
1014.8 hPa
74%
16.2°
2
Windvlaag: -1.1 m/s
45%
14:00
26°
1014.2 hPa 0.9 mm
81%
16.0°
3
Windvlaag: -1.7 m/s
47%
15:00
26°
1013.8 hPa
78%
15.9°
3
Windvlaag: -2.5 m/s
52%
16:00
26°
1013.7 hPa
82%
15.8°
3
Windvlaag: -2.9 m/s
57%
17:00
24°
1014.4 hPa
100%
17.1°
2
Windvlaag: -3.1 m/s
62%
18:00
24°
1014.5 hPa
97%
18.1°
3
Windvlaag: -2.9 m/s
61%
19:00
23°
1015.0 hPa
37%
18.1°
3
Windvlaag: -3.1 m/s
77%
20:00
22°
1015.3 hPa
27%
18.0°
2
Windvlaag: -3.6 m/s
84%
21:00
21°
1015.7 hPa
77%
16.9°
2
Windvlaag: -2.9 m/s
70%
22:00
20°
1016.4 hPa
74%
17.0°
2
Windvlaag: -2.4 m/s
61%
23:00
20°
1016.8 hPa
22%
18.3°
2
Windvlaag: -2.7 m/s
74%
 04:58     20:57    Daglengte: 15:59 Zaterdag 22 Jun
00:00
19°
1016.8 hPa
21%
17.6°
2
Windvlaag: -2.5 m/s
79%
01:00
19°
1016.8 hPa
21%
16.8°
2
Windvlaag: -2.3 m/s
59%
02:00
19°
1017.2 hPa
21%
16.0°
3
Windvlaag: -2.2 m/s
65%
03:00
18°
1017.3 hPa
21%
16.0°
2
Windvlaag: -2.3 m/s
67%
04:00
18°
1017.2 hPa
21%
15.9°
2
Windvlaag: -2.3 m/s
84%
05:00
18°
1017.3 hPa
21%
15.8°
2
Windvlaag: -2 m/s
81%
06:00
18°
1017.7 hPa
21%
16.0°
3
Windvlaag: -1.9 m/s
67%
07:00
19°
1017.9 hPa
22%
16.9°
3
Windvlaag: -1.7 m/s
67%
08:00
20°
1018.2 hPa
29%
17.1°
3
Windvlaag: -2.1 m/s
75%
09:00
21°
1018.0 hPa
82%
17.5°
3
Windvlaag: -4.9 m/s
77%
10:00
22°
1017.7 hPa
89%
18.1°
2
Windvlaag: -5 m/s
61%
11:00
23°
1017.4 hPa
95%
18.7°
3
Windvlaag: -5.3 m/s
48%
12:00
24°
1017.3 hPa
97%
19.3°
3
Windvlaag: -5.2 m/s
65%
13:00
24°
1016.9 hPa
99%
19.1°
3
Windvlaag: -5.2 m/s
73%
14:00
24°
1016.6 hPa 6.3 mm
100%
18.7°
3
Windvlaag: -2.6 m/s
74% warningclass
15:00
23°
1016.2 hPa 6.3 mm
100%
18.4°
3
Windvlaag: 6.1 m/s
78% warningclass
16:00
23°
1016.0 hPa 6.4 mm
100%
18.4°
2
Windvlaag: 6.3 m/s
93% warningclass
17:00
22°
1015.8 hPa 6.2 mm
100%
18.3°
2
Windvlaag: 6.4 m/s
89% warningclass
18:00
21°
1015.8 hPa 8.1 mm
100%
17.9°
3
Windvlaag: 11.1 m/s
86% warningclass
19:00
21°
1015.8 hPa 8.3 mm
100%
17.8°
2
Windvlaag: 3.8 m/s
85% warningclass
Temp/Neerslag /Baro Onweer/Dauwpunt
    Temp Baro Neerslag Dauwpunt Wind Bewolking  
 04:57     20:56    Daglengte: 15:59 Vandaag
20:00
24°
1010.5 hPa   17.6°
1
39%
23:00
20°
1011.1 hPa   18.4°
1
41%
 04:57     20:57    Daglengte: 16:00 Morgen
02:00
19°
1011.0 hPa   17.8°
1
20%
05:00
17°
1011.3 hPa   16.6°
1
16%
08:00
22°
1011.7 hPa   18.0°
1
14%
11:00
27°
1011.5 hPa   18.4°
2
13%
14:00
27°
1010.7 hPa 1.6 mm 17.1°
2
47%
17:00
28°
Voelt als: 27.8°
1010.3 hPa 1.3 mm 14.5°
1
30%
20:00
26°
1011.1 hPa   19.2°
2
26%
23:00
21°
1013.1 hPa   18.5°
1
36%
 04:58     20:57    Daglengte: 15:59 Vrijdag 21 Jun
02:00
19°
1013.4 hPa   17.0°
1
45%
05:00
18°
1013.9 hPa   16.0°
2
39%
08:00
21°
1014.9 hPa   16.6°
3
31%
11:00
24°
1015.1 hPa 3.8 mm 16.2°
3
32%
14:00
26°
1014.2 hPa 0.9 mm 16.0°
3
47%
17:00
24°
1014.4 hPa   17.1°
2
62%
20:00
22°
1015.3 hPa   18.0°
2
84%
23:00
20°
1016.8 hPa   18.3°
2
74%
 04:58     20:57    Daglengte: 15:59 Zaterdag 22 Jun
02:00
19°
1017.2 hPa   16.0°
3
65%
05:00
18°
1017.3 hPa   15.8°
2
81%
08:00
20°
1018.2 hPa   17.1°
3
75%
11:00
23°
1017.4 hPa   18.7°
3
48%
14:00
24°
1016.6 hPa 6.3 mm 18.7°
3
74% warningclass
17:00
22°
1015.8 hPa 18.9 mm 18.3°
2
89% warningclass
20:00
20°
1015.8 hPa 24.5 mm 17.8°
2
96% warningclass
23:00
19°
1015.9 hPa 30.1 mm 17.9°
2
92%
 04:58     20:57    Daglengte: 15:59 Zondag 23 Jun
02:00
18°
1016.0 hPa 33.4 mm 17.7°
2
92%
05:00
18°
1016.2 hPa 33.8 mm 17.7°
3
92%
08:00
18°
1016.5 hPa 34.4 mm 17.7°
3
92%
11:00
20°
1016.9 hPa 34.7 mm 18.2°
4
77%
14:00
22°
1017.2 hPa 34.8 mm 18.6°
5
63%
17:00
21°
1017.5 hPa 35.3 mm 17.8°
5
77%
20:00
21°
1018.0 hPa 35.6 mm 16.8°
4
92%
23:00
20°
1019.0 hPa 35.6 mm 14.4°
4
91%
 04:58     20:57    Daglengte: 15:59 Maandag 24 Jun
02:00
20°
1019.7 hPa 35.6 mm 11.9°
4
91%
05:00
19°
1020.6 hPa 35.6 mm 11.8°
5
89%
08:00
19°
1021.5 hPa 35.6 mm 11.6°
5
87%
11:00
22°
1021.4 hPa 35.6 mm 13.3°
5
89%
14:00
25°
1021.2 hPa 35.6 mm 15.1°
5
92%
17:00
24°
1021.4 hPa 35.7 mm 15.2°
4
54%
20:00
23°
1021.7 hPa 35.7 mm 15.4°
3
16%
23:00
21°
1022.7 hPa 35.7 mm 14.5°
3
15%
 04:59     20:57    Daglengte: 15:58 Dinsdag 25 Jun
02:00
18°
1023.5 hPa 35.7 mm 13.4°
2
14%
05:00
19°
1024.0 hPa 35.7 mm 13.7°
3
13%
08:00
21°
1024.5 hPa 35.7 mm 14.1°
3
12%
11:00
24°
1024.3 hPa 35.7 mm 15.8°
3
6%
14:00
27°
1024.1 hPa 35.7 mm 17.4°
2
0%
17:00
26°
1023.6 hPa 35.7 mm 17.3°
2
1%
20:00
26°
1023.3 hPa 35.7 mm 17.3°
1
2%
23:00
22°
1024.0 hPa 35.7 mm 17.6°
1
2%
 04:59     20:57    Daglengte: 15:58 Woensdag 26 Jun
02:00
19°
1024.5 hPa 35.7 mm 17.0°
1
3%
05:00
20°
1024.6 hPa 35.7 mm 17.6°
1
5%
08:00
23°
1024.7 hPa 35.7 mm 18.2°
0
8%
11:00
26°
1024.2 hPa 35.7 mm 18.9°
2
19%
14:00
29°
1023.5 hPa 35.7 mm 19.2°
4
31%
17:00
28°
1022.5 hPa   18.9°
3
15%
20:00
26°
1021.7 hPa 71.4 mm 18.6°
3
0%
 05:00     20:57    Daglengte: 15:57 Donderdag 27 Jun
02:00
20°
1021.4 hPa 71.4 mm 16.4°
2
0%
08:00
25°
1019.7 hPa 71.4 mm 18.8°
2
0%
14:00
32°
1017.5 hPa 71.4 mm 18.4°
1
8%
20:00
28°
1016.3 hPa 71.4 mm 19.9°
2
0%
 05:00     20:57    Daglengte: 15:57 Vrijdag 28 Jun
02:00
21°
1016.4 hPa 71.7 mm 18.9°
2
0%
08:00
28°
1015.4 hPa 71.7 mm 18.3°
2
0%
14:00
35°
1014.0 hPa 71.7 mm 17.5°
2
0%
20:00
31°
1012.6 hPa 75.2 mm 22.3°
2
2%
 05:01     20:57    Daglengte: 15:56 Zaterdag 29 Jun
02:00
24°
1012.5 hPa 79.1 mm 16.5°
3
0%
08:00
25°
1013.2 hPa 79.7 mm 18.3°
3
0%
14:00
28°
1014.6 hPa 0.7 mm 16.4°
2
19%
20:00
25°
1014.2 hPa 0.8 mm 17.9°
1
27%
 05:01     20:57    Daglengte: 15:56 Zondag 30 Jun
02:00
18°
1015.4 hPa 0.6 mm 15.1°
1
24%
08:00
21°
1015.7 hPa 0.5 mm 15.8°
1
19%
14:00
28°
1014.5 hPa 0.5 mm 15.2°
1
19%
20:00
24°
1013.9 hPa 1.3 mm 17.1°
1
30%
 05:02     20:57    Daglengte: 15:55 Maandag 01 Jul
02:00
18°
1015.0 hPa 0.5 mm 14.3°
1
33%
08:00
21°
1015.1 hPa 1.4 mm 15.2°
1
29%
14:00
28°
1013.9 hPa 0.7 mm 15.1°
0
28%
20:00
25°
1013.1 hPa 1.1 mm 17.2°
0
40%
 05:02     20:57    Daglengte: 15:55 Dinsdag 02 Jul
02:00
18°
1014.4 hPa 0.9 mm 14.7°
1
45%
08:00
20°
1015.1 hPa 0.8 mm 15.3°
1
33%
14:00
27°
1014.0 hPa 1.5 mm 15.1°
0
29%
20:00
24°
1013.4 hPa 1.3 mm 17.1°
0
44%
 05:03     20:56    Daglengte: 15:53 Woensdag 03 Jul
02:00
18°
1014.4 hPa 2.2 mm 15.0°
1
49%
08:00
20°
1014.9 hPa 1.6 mm 16.0°
1
40%
14:00
27°
1013.7 hPa 1.0 mm 15.5°
1
34%
20:00
24°
1012.9 hPa 1.2 mm 17.6°
0
51%
 05:04     20:56    Daglengte: 15:52 Donderdag 04 Jul
02:00
18°
1014.2 hPa 2.0 mm 15.3°
1
49%
08:00
20°
1015.4 hPa 1.7 mm 15.9°
2
39%
14:00
26°
1015.1 hPa 1.2 mm 15.4°
1
30%
  CAPE Lifted Index Hail Supercell Tornado SRH 3km CL BTM PRES CL TOP PRES Swiss DWD icon SMHI TS
 04:57     20:56    Daglengte: 15:59 Vandaag
20:00 165 J/kg -1.9 K 0 % 0 % 0 % 0 m²/s² 0 0 0.08 3
21:00 50 J/kg -1.4 K 0 % 0 % 0 % 0 m²/s² 0 0 0.67 3
22:00 4 J/kg -0.1 K 0 % 0 % 0 % 0 m²/s² 0 0 0.65 3
23:00 0 J/kg 1.2 K 0 % 0 % 0 % 0 m²/s² 0 0 1.86 3
 04:57     20:57    Daglengte: 16:00 Morgen
00:00 0 J/kg 0.4 K 0 % 0 % 0 % 0 m²/s² 0 0 1.63 3
01:00 0 J/kg 0.3 K 0 % 0 % 0 % 0 m²/s² 0 0 2.16 3
02:00 0 J/kg -0.3 K 0 % 0 % 0 % 0 m²/s² 0 0 1.14 2
03:00 0 J/kg -0.6 K 0 % 0 % 0 % 0 m²/s² 0 0 1.14 2
04:00 0 J/kg -0.7 K 0 % 0 % 0 % 0 m²/s² 0 0 0.35 1
05:00 0 J/kg -0.2 K 0 % 0 % 0 % 0 m²/s² 0 0 0.82 45
06:00 0 J/kg -1.2 K 0 % 0 % 0 % 0 m²/s² 0 0 0 45
07:00 0 J/kg -1.7 K 0 % 0 % 0 % 0 m²/s² 0 0 -0.2 3
08:00 0 J/kg -1.6 K 0 % 0 % 0 % 0 m²/s² 0 0 0.08 3
09:00 0 J/kg -1.3 K 0 % 0 % 0 % 0 m²/s² 0 0 0.2 2
10:00 250 J/kg -1.3 K 0 % 0 % 0 % 0 m²/s² 0 0 0.32 1
11:00 549 J/kg -2.1 K 0 % 0 % 0 % 0 m²/s² 0 0 -0.54 3
12:00 636 J/kg -2.2 K 0 % 0 % 0 % 0 m²/s² 0 0 -0.34 3
13:00 732 J/kg -2.5 K 0 % 0 % 0 % 0 m²/s² 0 0 -0.25 3
14:00 703 J/kg -2.5 K 0 % 0 % 0 % 0 m²/s² 0 0 0.29 0
15:00 814 J/kg -2.8 K 0 % 0 % 0 % 0 m²/s² 0 0 0.41 95
16:00 947 J/kg -3.3 K 0 % 0 % 0 % 0 m²/s² 0 0 0.66 3
17:00 1023 J/kg -3.7 K 0 % 0 % 0 % 0 m²/s² 0 0 0.59 3
18:00 1156 J/kg -4.2 K 0 % 0 % 0 % 0 m²/s² 0 0 0 3
19:00 1428 J/kg -4.8 K 0 % 0 % 0 % 0 m²/s² 0 0 -0.81 3
20:00 1588 J/kg -5.1 K 0 % 0 % 0 % 0 m²/s² 0 0 -1.71 3
21:00 1473 J/kg -5.2 K 0 % 0 % 0 % 0 m²/s² 0 0 -2.5 81
22:00 1048 J/kg -5.0 K 0 % 0 % 0 % 0 m²/s² 0 0 -3.74 3
23:00 177 J/kg -1.4 K 0 % 0 % 0 % 0 m²/s² 0 0 -0.53 3
 04:58     20:57    Daglengte: 15:59 Vrijdag 21 Jun
00:00 0 J/kg -1.8 K 0 % 0 % 0 % 0 m²/s² 0 0 -1.71 3
01:00 0 J/kg -2.3 K 0 % 0 % 0 % 0 m²/s² 0 0 -1.49 3
02:00 0 J/kg -2.9 K 0 % 0 % 0 % 0 m²/s² 0 0 -1.85 80
03:00 0 J/kg -2.3 K 0 % 0 % 0 % 0 m²/s² 0 0 -0.11 3
04:00 0 J/kg -1.0 K 0 % 0 % 0 % 0 m²/s² 0 0 0.44 2
05:00 0 J/kg 0.4 K 0 % 0 % 0 % 0 m²/s² 0 0 1.9 2
06:00 0 J/kg 0.7 K 0 % 0 % 0 % 0 m²/s² 0 0 2.5 2
07:00 0 J/kg 0.6 K 0 % 0 % 0 % 0 m²/s² 0 0 2.55 3
08:00 1 J/kg 0.2 K 0 % 0 % 0 % 0 m²/s² 0 0 2.63 2
09:00 9 J/kg -0.2 K 0 % 0 % 0 % 0 m²/s² 0 0 2.38 2
10:00 46 J/kg -0.5 K 0 % 0 % 0 % 0 m²/s² 0 0 2.08 2
11:00 119 J/kg -0.9 K 0 % 0 % 0 % 0 m²/s² 0 0 1.83 2
12:00 245 J/kg -1.4 K 0 % 0 % 0 % 0 m²/s² 0 0 1.18 3
13:00 414 J/kg -1.7 K 0 % 0 % 0 % 0 m²/s² 0 0 0.49 3
14:00 597 J/kg -2.2 K 0 % 0 % 0 % 0 m²/s² 0 0 -0.01 3
15:00 824 J/kg -3.0 K 0 % 0 % 0 % 0 m²/s² 0 0 -0.87 3
16:00 1002 J/kg -3.4 K 0 % 0 % 0 % 0 m²/s² 0 0 -1.48 3
17:00 1017 J/kg -3.6 K 0 % 0 % 0 % 0 m²/s² 0 0 -1.86 3
18:00 1083 J/kg -4.0 K 0 % 0 % 0 % 0 m²/s² 0 0 -2.77 3
19:00 694 J/kg -3.0 K 0 % 0 % 0 % 0 m²/s² 0 0 -2.37 3
20:00 56 J/kg -0.9 K 0 % 0 % 0 % 0 m²/s² 0 0 -0.12 3
21:00 68 J/kg 0.1 K 0 % 0 % 0 % 0 m²/s² 0 0 0.46 3
22:00 0 J/kg 2.0 K 0 % 0 % 0 % 0 m²/s² 0 0 2.12 3
23:00 0 J/kg 1.1 K 0 % 0 % 0 % 0 m²/s² 0 0 1.82 3
 04:58     20:57    Daglengte: 15:59 Zaterdag 22 Jun
00:00 0 J/kg -0.4 K 0 % 0 % 0 % 0 m²/s² 0 0 0.23 3
01:00 1 J/kg -0.8 K 0 % 0 % 0 % 0 m²/s² 0 0 -0.02 3
02:00 0 J/kg -1.1 K 0 % 0 % 0 % 0 m²/s² 0 0 -0.56 3
03:00 0 J/kg -0.5 K 0 % 0 % 0 % 0 m²/s² 0 0 0.4 3
04:00 0 J/kg -0.6 K 0 % 0 % 0 % 0 m²/s² 0 0 0.51 3
05:00 0 J/kg -1.5 K 0 % 0 % 0 % 0 m²/s² 0 0 -0.63 3
06:00 0 J/kg -2.3 K 0 % 0 % 0 % 0 m²/s² 0 0 -1.13 3
07:00 0 J/kg -2.5 K 0 % 0 % 0 % 0 m²/s² 0 0 -1.33 3
08:00 342 J/kg -2.9 K 0 % 0 % 0 % 0 m²/s² 0 0 -1.88 3
09:00 641 J/kg -3.3 K 0 % 0 % 0 % 0 m²/s² 0 0 -2.43 3
10:00 1044 J/kg -4.0 K 0 % 0 % 0 % 0 m²/s² 0 0 -3.19 3
11:00 1519 J/kg -5.1 K 0 % 0 % 0 % 0 m²/s² 0 0 -4.29 2
12:00 1890 J/kg -6.0 K 0 % 0 % 0 % 0 m²/s² 0 0 -5.34 3
13:00 2023 J/kg -6.4 K 0 % 0 % 0 % 0 m²/s² 0 0 -5.17 3
14:00 1763 J/kg -5.7 K 0 % 0 % 0 % 0 m²/s² 0 0 -3.36 95
15:00 1786 J/kg -5.8 K 0 % 0 % 0 % 0 m²/s² 0 0 -3.55 95
16:00 1922 J/kg -6.2 K 0 % 0 % 0 % 0 m²/s² 0 0 -4.4 95
17:00 1609 J/kg -4.8 K 0 % 0 % 0 % 0 m²/s² 0 0 -3.75 80
18:00 241 J/kg -1.0 K 0 % 0 % 0 % 0 m²/s² 0 0 -0.97 95
19:00 52 J/kg 0.0 K 0 % 0 % 0 % 0 m²/s² 0 0 0.09 95
Temp Baro Wind Neerslag
  EWN Forecast EWN WRFDA DWD ICON FMI HIRLAM MET Norway GFS
 04:57     20:56    Daglengte: 15:59 Vandaag
20:00 24.3° 1010.5 hPa 1.4 m/s 0.0 mm 23.4° 1010.9 hPa 1.4 m/s 1.6 mm 23.9° 1010.4 hPa 1.3 m/s -1.3 mm 25.9° 1010.7 hPa 1.7 m/s 0.0 mm 24.1° 1010.4 hPa 1.3 m/s 0.0 mm 23.3° 1011.4 hPa 1.5 m/s
23:00 20.4° 1011.1 hPa 1.3 m/s 0.0 mm 19.5° 1011.3 hPa 1.8 m/s 4.9 mm 19.4° 1011.0 hPa 1.0 m/s 0.0 mm 21.5° 1011.1 hPa 1.3 m/s 0.0 mm 20.2° 1011.3 hPa 1.8 m/s 0.0 mm 20.0° 1012.3 hPa 1.6 m/s
 04:57     20:57    Daglengte: 16:00 Morgen
02:00 18.6° 1011.0 hPa 0.8 m/s 0.0 mm 17.3° 1011.3 hPa 1.3 m/s 4.9 mm 17.5° 1011.2 hPa 0.9 m/s 0.0 mm 19.4° 1011.0 hPa 0.7 m/s 0.0 mm 18.5° 1010.9 hPa 0.5 m/s 0.0 mm 18.5° 1012.5 hPa 1.4 m/s
05:00 17.1° 1011.3 hPa 1.2 m/s 0.0 mm 16.6° 1010.5 hPa 1.3 m/s 4.9 mm 15.3° 1011.5 hPa 1.1 m/s 0.0 mm 17.5° 1011.3 hPa 1.2 m/s 0.0 mm 17.0° 1011.6 hPa 0.9 m/s 0.0 mm 17.9° 1012.1 hPa 1.1 m/s
08:00 21.8° 1011.7 hPa 1.0 m/s 0.0 mm 21.8° 1011.0 hPa 0.7 m/s 4.9 mm 21.7° 1011.8 hPa 1.0 m/s 0.0 mm 22.3° 1011.7 hPa 1.2 m/s 0.0 mm 21.5° 1012.2 hPa 1.3 m/s 0.0 mm 22.5° 1012.7 hPa 0.1 m/s
11:00 26.6° 1011.5 hPa 2.0 m/s 0.0 mm 25.5° 1011.5 hPa 1.8 m/s 4.9 mm 26.7° 1011.6 hPa 2.6 m/s 0.0 mm 27.1° 1011.1 hPa 0.9 m/s 0.0 mm 25.8° 1011.8 hPa 1.9 m/s 0.0 mm 27.4° 1012.0 hPa 1.7 m/s
14:00 27.4° 1010.7 hPa 1.9 m/s 1.6 mm 28.1° 1010.5 hPa 1.2 m/s 4.9 mm 29.2° 1010.6 hPa 3.3 m/s 0.1 mm 30.4° 1009.9 hPa 1.7 m/s 0.0 mm 25.8° 1011.5 hPa 1.3 m/s 0.9 mm 29.9° 1010.8 hPa 2.7 m/s
17:00 27.8° 1010.3 hPa 1.0 m/s 1.3 mm 28.9° 1009.3 hPa 0.5 m/s 4.9 mm 25.6° 1010.5 hPa 2.1 m/s 1.5 mm 30.6° 1009.5 hPa 0.9 m/s 0.0 mm 27.5° 1010.9 hPa 0.8 m/s 0.0 mm 28.8° 1010.0 hPa 3.5 m/s
20:00 25.6° 1011.1 hPa 1.5 m/s 0.0 mm 26.6° 1009.8 hPa 1.3 m/s 4.9 mm 24.9° 1011.6 hPa 0.5 m/s 0.0 mm 27.3° 1010.0 hPa 0.9 m/s 0.0 mm 24.1° 1012.0 hPa 2.1 m/s 0.0 mm 25.3° 1011.5 hPa 1.9 m/s
23:00 21.2° 1013.1 hPa 1.0 m/s 0.0 mm 20.7° 1013.6 hPa 4.5 m/s 6.4 mm 19.1° 1013.4 hPa 0.8 m/s 5.0 mm 21.8° 1011.6 hPa 1.4 m/s 0.0 mm 21.2° 1013.4 hPa 0.4 m/s 0.0 mm 19.5° 1013.7 hPa 3.8 m/s
 04:58     20:57    Daglengte: 15:59 Vrijdag 21 Jun
02:00 18.9° 1013.4 hPa 1.5 m/s 0.0 mm 19.0° 1012.6 hPa 4.5 m/s 13.9 mm 18.0° 1014.4 hPa 0.8 m/s 0.2 mm 18.9° 1012.2 hPa 1.2 m/s 0.0 mm 18.6° 1014.3 hPa 1.9 m/s 1.4 mm 18.7° 1014.8 hPa 2.3 m/s
05:00 18.2° 1013.9 hPa 2.0 m/s 0.0 mm 17.0° 1013.4 hPa 4.2 m/s 15.5 mm 17.3° 1015.1 hPa 1.0 m/s 0.3 mm 18.1° 1012.7 hPa 1.5 m/s 0.0 mm 18.4° 1014.7 hPa 4.1 m/s 0.0 mm 18.1° 1015.3 hPa 1.9 m/s
08:00 21.2° 1014.9 hPa 2.7 m/s 0.0 mm 21.2° 1013.9 hPa 4.2 m/s 15.7 mm 20.9° 1015.7 hPa 1.1 m/s 0.0 mm 23.2° 1013.6 hPa 4.0 m/s 0.0 mm 20.6° 1016.5 hPa 2.8 m/s 1.1 mm 21.2° 1016.3 hPa 2.3 m/s
11:00 24.3° 1015.1 hPa 3.0 m/s 3.8 mm 24.3° 1014.8 hPa 3.7 m/s 15.7 mm 24.6° 1015.6 hPa 3.8 m/s 0.0 mm 27.1° 1013.7 hPa 4.6 m/s 0.0 mm 23.9° 1016.5 hPa 2.3 m/s 0.9 mm 25.4° 1016.2 hPa 3.7 m/s
14:00 26.0° 1014.2 hPa 3.0 m/s 0.9 mm 26.3° 1013.7 hPa 2.1 m/s 15.7 mm 23.6° 1015.6 hPa 3.0 m/s 0.3 mm 28.6° 1013.0 hPa 5.3 m/s 0.0 mm 25.7° 1014.8 hPa 0.7 m/s 0.3 mm 27.9° 1014.9 hPa 3.6 m/s
17:00 24.4° 1014.4 hPa 2.1 m/s 0.0 mm 26.9° 1013.2 hPa 0.9 m/s 15.8 mm 23.4° 1015.3 hPa 3.0 m/s 0.2 mm 24.2° 1014.5 hPa 1.6 m/s 0.8 mm 27.5° 1014.4 hPa 2.8 m/s
20:00 22.2° 1015.3 hPa 2.3 m/s 0.0 mm 20.2° 1014.1 hPa 2.5 m/s 21.9 mm 21.9° 1016.0 hPa 2.2 m/s 0.1 mm 23.4° 1015.2 hPa 1.0 m/s 0.0 mm 23.4° 1014.8 hPa 1.3 m/s
23:00 19.7° 1016.8 hPa 1.9 m/s 0.0 mm 18.4° 1015.9 hPa 1.8 m/s 40.2 mm 19.6° 1017.2 hPa 1.1 m/s 0.2 mm 20.0° 1016.7 hPa 1.5 m/s 0.0 mm 20.7° 1016.4 hPa 1.4 m/s
 04:58     20:57    Daglengte: 15:59 Zaterdag 22 Jun
02:00 18.6° 1017.2 hPa 2.8 m/s 0.0 mm 18.3° 1015.7 hPa 2.5 m/s 47.0 mm 18.2° 1017.4 hPa 1.1 m/s 0.0 mm 18.9° 1017.2 hPa 2.9 m/s 0.0 mm 19.8° 1016.2 hPa 1.7 m/s
05:00 17.7° 1017.3 hPa 2.0 m/s 0.0 mm 17.2° 1014.2 hPa 3.1 m/s 47.0 mm 17.5° 1017.6 hPa 0.7 m/s 0.0 mm 17.7° 1017.5 hPa 1.8 m/s 1.1 mm 18.7° 1015.7 hPa 1.8 m/s
08:00 19.9° 1018.2 hPa 2.8 m/s 0.0 mm 21.3° 1014.8 hPa 1.0 m/s 47.0 mm 20.9° 1018.4 hPa 2.5 m/s 0.0 mm 19.7° 1018.3 hPa 2.9 m/s 1.5 mm 20.6° 1016.2 hPa 2.3 m/s
11:00 22.7° 1017.4 hPa 2.8 m/s 0.0 mm 24.4° 1014.1 hPa 2.6 m/s 47.2 mm 23.5° 1017.9 hPa 4.4 m/s 0.1 mm 21.7° 1017.5 hPa 1.9 m/s 22.9° 1015.2 hPa 2.6 m/s
14:00 24.0° 1016.6 hPa 3.0 m/s 6.3 mm 27.5° 1011.6 hPa 5.2 m/s 48.9 mm 22.0° 1018.0 hPa 3.9 m/s 1.4 mm 23.7° 1016.7 hPa 1.0 m/s 25.2° 1013.6 hPa 2.5 m/s
17:00 22.2° 1015.8 hPa 2.2 m/s 18.9 mm 27.1° 1010.5 hPa 5.5 m/s 49.9 mm 20.8° 1016.5 hPa 2.3 m/s 3.4 mm 21.8° 1016.4 hPa 1.5 m/s 25.3° 1012.3 hPa 0.5 m/s
20:00 20.0° 1015.8 hPa 1.9 m/s 24.5 mm 22.4° 1011.8 hPa 1.5 m/s 50.4 mm 19.1° 1017.4 hPa 2.0 m/s 11.6 mm 19.9° 1016.0 hPa 2.0 m/s 23.0° 1012.6 hPa 0.2 m/s
23:00 18.6° 1015.9 hPa 1.9 m/s 30.1 mm 18.6° 1016.1 hPa 1.9 m/s 19.4° 1013.8 hPa 1.6 m/s 30.1 mm
 04:58     20:57    Daglengte: 15:59 Zondag 23 Jun
02:00 18.0° 1016.0 hPa 1.9 m/s 33.4 mm 17.9° 1016.2 hPa 1.9 m/s 18.8° 1014.0 hPa 1.8 m/s 33.4 mm
05:00 18.0° 1016.2 hPa 2.5 m/s 33.8 mm 17.9° 1016.4 hPa 2.5 m/s 18.3° 1014.5 hPa 2.7 m/s 33.8 mm
08:00 18.0° 1016.5 hPa 3.2 m/s 34.4 mm 18.0° 1016.6 hPa 3.1 m/s 18.5° 1015.8 hPa 3.8 m/s 34.4 mm
11:00 19.8° 1016.9 hPa 3.8 m/s 34.7 mm 19.8° 1016.9 hPa 3.8 m/s 20.0° 1017.2 hPa 3.7 m/s 34.7 mm
14:00 21.8° 1017.2 hPa 4.7 m/s 34.8 mm 21.6° 1017.2 hPa 4.6 m/s 23.7° 1016.9 hPa 5.4 m/s 34.8 mm
17:00 21.3° 1017.5 hPa 4.6 m/s 35.3 mm 21.2° 1017.6 hPa 4.5 m/s 22.2° 1016.9 hPa 5.4 m/s 35.3 mm
20:00 20.9° 1018.0 hPa 4.4 m/s 35.6 mm 20.9° 1018.0 hPa 4.4 m/s 20.6° 1018.5 hPa 4.2 m/s 35.6 mm
23:00 20.2° 1019.0 hPa 4.3 m/s 35.6 mm 20.4° 1018.8 hPa 4.3 m/s 17.6° 1020.6 hPa 3.5 m/s 35.6 mm
 04:58     20:57    Daglengte: 15:59 Maandag 24 Jun
02:00 19.6° 1019.7 hPa 4.2 m/s 35.6 mm 19.9° 1019.6 hPa 4.3 m/s 16.1° 1021.2 hPa 3.1 m/s 35.6 mm
05:00 19.4° 1020.6 hPa 4.6 m/s 35.6 mm 19.7° 1020.5 hPa 4.7 m/s 16.5° 1021.6 hPa 3.2 m/s 35.6 mm
08:00 19.4° 1021.5 hPa 5.0 m/s 35.6 mm 19.5° 1021.4 hPa 5.1 m/s 18.6° 1022.5 hPa 3.4 m/s 35.6 mm
11:00 22.1° 1021.4 hPa 5.3 m/s 35.6 mm 22.1° 1021.2 hPa 5.3 m/s 23.2° 1022.6 hPa 4.7 m/s 35.6 mm
14:00 24.5° 1021.2 hPa 5.5 m/s 35.6 mm 24.6° 1021.1 hPa 5.5 m/s 23.5° 1021.9 hPa 4.9 m/s 35.6 mm
17:00 24.0° 1021.4 hPa 4.4 m/s 35.7 mm 23.9° 1021.4 hPa 4.4 m/s 25.5° 1021.5 hPa 4.5 m/s 35.7 mm
20:00 23.2° 1021.7 hPa 3.3 m/s 35.7 mm 23.2° 1021.7 hPa 3.3 m/s 22.9° 1022.1 hPa 3.5 m/s 35.7 mm
23:00 20.7° 1022.7 hPa 2.8 m/s 35.7 mm 20.8° 1022.6 hPa 2.8 m/s 19.6° 1024.1 hPa 2.5 m/s 35.7 mm
 04:59     20:57    Daglengte: 15:58 Dinsdag 25 Jun
02:00 18.3° 1023.5 hPa 2.4 m/s 35.7 mm 18.3° 1023.5 hPa 2.4 m/s 18.3° 1024.1 hPa 2.1 m/s 35.7 mm
05:00 19.3° 1024.0 hPa 2.6 m/s 35.7 mm 19.5° 1024.0 hPa 2.6 m/s 17.6° 1023.8 hPa 2.0 m/s 35.7 mm
08:00 20.8° 1024.5 hPa 2.8 m/s 35.7 mm 20.7° 1024.6 hPa 2.9 m/s 21.9° 1023.9 hPa 1.9 m/s 35.7 mm
11:00 23.8° 1024.3 hPa 2.6 m/s 35.7 mm 23.5° 1024.4 hPa 2.6 m/s 26.7° 1023.6 hPa 2.1 m/s 35.7 mm
14:00 26.7° 1024.1 hPa 2.3 m/s 35.7 mm 26.4° 1024.2 hPa 2.3 m/s 29.5° 1022.7 hPa 2.3 m/s 35.7 mm
17:00 26.5° 1023.6 hPa 1.5 m/s 35.7 mm 26.2° 1023.9 hPa 1.4 m/s 29.5° 1021.4 hPa 2.8 m/s 35.7 mm
20:00 26.0° 1023.3 hPa 0.5 m/s 35.7 mm 26.0° 1023.5 hPa 0.5 m/s 25.8° 1021.7 hPa 1.0 m/s 35.7 mm
23:00 22.2° 1024.0 hPa 1.0 m/s 35.7 mm 22.1° 1024.1 hPa 0.9 m/s 22.3° 1022.9 hPa 1.0 m/s 35.7 mm
 04:59     20:57    Daglengte: 15:58 Woensdag 26 Jun
02:00 18.5° 1024.5 hPa 1.4 m/s 35.7 mm 18.3° 1024.7 hPa 1.4 m/s 20.8° 1022.3 hPa 1.4 m/s 35.7 mm
05:00 20.4° 1024.6 hPa 0.8 m/s 35.7 mm 20.4° 1024.8 hPa 0.8 m/s 19.9° 1022.0 hPa 1.5 m/s 35.7 mm
08:00 22.6° 1024.7 hPa 0.2 m/s 35.7 mm 22.5° 1025.0 hPa 0.1 m/s 24.3° 1021.9 hPa 1.6 m/s 35.7 mm
11:00 26.0° 1024.2 hPa 2.0 m/s 35.7 mm 25.8° 1024.4 hPa 1.9 m/s 28.3° 1021.5 hPa 3.4 m/s 35.7 mm
14:00 29.1° 1023.5 hPa 3.6 m/s 35.7 mm 29.0° 1023.8 hPa 3.6 m/s 30.3° 1020.2 hPa 3.8 m/s 35.7 mm
17:00 27.7° 1022.5 hPa 3.3 m/s 35.7 mm 27.5° 1022.8 hPa 3.2 m/s 30.3° 1018.9 hPa 3.8 m/s 35.7 mm
20:00 26.0° 1021.7 hPa 2.8 m/s 35.7 mm 26.0° 1021.9 hPa 2.9 m/s 25.9° 1018.9 hPa 1.8 m/s 35.7 mm
 05:00     20:57    Daglengte: 15:57 Donderdag 27 Jun
02:00 20.4° 1021.4 hPa 1.9 m/s 35.7 mm 20.4° 1021.6 hPa 2.0 m/s 20.7° 1019.0 hPa 1.3 m/s 35.7 mm
08:00 24.5° 1019.7 hPa 1.9 m/s 35.7 mm 24.5° 1019.9 hPa 2.0 m/s 24.6° 1017.5 hPa 0.9 m/s 35.7 mm
14:00 31.5° 1017.5 hPa 1.5 m/s 35.7 mm 31.5° 1017.7 hPa 1.3 m/s 31.9° 1015.5 hPa 3.4 m/s 35.7 mm
20:00 27.6° 1016.3 hPa 2.1 m/s 35.7 mm 27.6° 1016.5 hPa 2.2 m/s 27.6° 1013.9 hPa 0.8 m/s 35.7 mm
 05:00     20:57    Daglengte: 15:57 Vrijdag 28 Jun
02:00 20.9° 1016.4 hPa 2.0 m/s 35.9 mm 20.8° 1016.5 hPa 2.1 m/s 22.2° 1014.8 hPa 0.8 m/s 35.9 mm
08:00 27.9° 1015.4 hPa 1.9 m/s 35.9 mm 28.2° 1015.6 hPa 2.0 m/s 24.8° 1013.6 hPa 0.8 m/s 35.9 mm
14:00 35.3° 1014.0 hPa 1.9 m/s 35.9 mm 35.5° 1014.2 hPa 1.8 m/s 33.0° 1011.7 hPa 2.5 m/s 35.9 mm
20:00 31.0° 1012.6 hPa 1.9 m/s 38.4 mm 31.4° 1012.8 hPa 1.9 m/s 26.8° 1011.0 hPa 1.7 m/s 38.4 mm
 05:01     20:57    Daglengte: 15:56 Zaterdag 29 Jun
02:00 23.6° 1012.5 hPa 3.0 m/s 39.5 mm 23.8° 1012.5 hPa 3.1 m/s 21.8° 1012.6 hPa 2.2 m/s 39.5 mm
08:00 25.5° 1013.2 hPa 3.0 m/s 40.0 mm 25.5° 1013.2 hPa 3.0 m/s 40.0 mm
14:00 28.5° 1014.6 hPa 1.8 m/s 0.7 mm
20:00 25.1° 1014.2 hPa 1.4 m/s 0.8 mm
 05:01     20:57    Daglengte: 15:56 Zondag 30 Jun
02:00 18.4° 1015.4 hPa 1.2 m/s 0.6 mm
08:00 21.2° 1015.7 hPa 1.4 m/s 0.5 mm
14:00 28.3° 1014.5 hPa 0.9 m/s 0.5 mm
20:00 24.5° 1013.9 hPa 0.9 m/s 1.3 mm
 05:02     20:57    Daglengte: 15:55 Maandag 01 Jul
02:00 17.7° 1015.0 hPa 0.9 m/s 0.5 mm
08:00 21.0° 1015.1 hPa 0.9 m/s 1.4 mm
14:00 27.8° 1013.9 hPa 0.2 m/s 0.7 mm
20:00 24.6° 1013.1 hPa 0.1 m/s 1.1 mm
 05:02     20:57    Daglengte: 15:55 Dinsdag 02 Jul
02:00 17.8° 1014.4 hPa 1.2 m/s 0.9 mm
08:00 20.5° 1015.1 hPa 1.5 m/s 0.8 mm
14:00 26.6° 1014.0 hPa 0.3 m/s 1.5 mm
20:00 23.9° 1013.4 hPa 0.3 m/s 1.3 mm
 05:03     20:56    Daglengte: 15:53 Woensdag 03 Jul
02:00 17.9° 1014.4 hPa 1.2 m/s 2.2 mm
08:00 20.5° 1014.9 hPa 1.5 m/s 1.6 mm
14:00 26.7° 1013.7 hPa 0.6 m/s 1.0 mm
20:00 24.2° 1012.9 hPa 0.4 m/s 1.2 mm
 05:04     20:56    Daglengte: 15:52 Donderdag 04 Jul
02:00 17.8° 1014.2 hPa 1.3 m/s 2.0 mm
08:00 20.2° 1015.4 hPa 2.2 m/s 1.7 mm
14:00 26.3° 1015.1 hPa 1.3 m/s 1.2 mm
FMI Hirlam - 7.5 km EWN WRFDA - 12 km DWD ICON - 7 km GFS - 25 km Basiskaart






























































Updatetijd (Europe/Amsterdam) Resolutie Lengte Stap
FMI Hirlam 19:00, 01:00, 07:00, 13:00 7.5 km 49h 1h
EWN WRFDA 16:00, 22:00, 04:00, 10:00 12 km 73h 1h
DWD ICON 17:45, 23:45, 05:45, 11:45 7 km 75h 1h
GFS 14:30, 20:30, 02:30, 08:30 25 km 237h 3h
30+ mm
25-30 mm
20-25 mm
15-20 mm
10-15 mm
6-10 mm
4-6 mm
2-4 mm
1-2 mm
0.5-1 mm
0.2-0.5 mm
0.1-0.2 mm
30+ mm
25-30 mm
20-25 mm
15-20 mm
10-15 mm
6-10 mm
4-6 mm
2-4 mm
1-2 mm
0.5-1 mm
0.2-0.5 mm
0.1-0.2 mm
Sneeuwval
Natte sneeuw
Hagel
Vorst
30+ mm
25-30 mm
20-25 mm
15-20 mm
10-15 mm
6-10 mm
4-6 mm
2-4 mm
1-2 mm
0.5-1 mm
0.2-0.5 mm
0.1-0.2 mm
Sneeuwval
Natte sneeuw
Hagel
Vorst
Onweer
50 mm
40 mm
30 mm
26 mm
22 mm
18 mm
14 mm
10 mm
9 mm
8 mm
7 mm
6 mm
5 mm
4.5 mm
4 mm
3.5 mm
3 mm
2.5 mm
2 mm
1.5 mm
1 mm
0.8 mm
0.6 mm
0.4 mm
0.2 mm
0.05 mm
35°
30°
25°
20°
15°
10°
-5°
-10°
-15°
-20°
-25°
-30°
-35°
33> m/s
29 m/s
25 m/s
21 m/s
17 m/s
14 m/s
11 m/s
8 m/s
5 m/s
3 m/s
0 m/s
2600 J/kg
2400 J/kg
2200 J/kg
2000 J/kg
1800 J/kg
1600 J/kg
1400 J/kg
1200 J/kg
1000 J/kg
800 J/kg
600 J/kg
400 J/kg
200 J/kg
70 dBZ
65 dBZ
60 dBZ
55 dBZ
50 dBZ
45 dBZ
40 dBZ
35 dBZ
30 dBZ
25 dBZ
20 dBZ
15 dBZ
10 dBZ
5 dBZ
-1 K
-2 K
-3 K
-4 K
-5 K
-6 K
-7 K
-8 K
-9 K
950 m²/s²
900 m²/s²
850 m²/s²
800 m²/s²
750 m²/s²
700 m²/s²
650 m²/s²
600 m²/s²
550 m²/s²
500 m²/s²
450 m²/s²
400 m²/s²
350 m²/s²
300 m²/s²
250 m²/s²
200 m²/s²
150 m²/s²
100 m²/s²
46 m/s
44 m/s
42 m/s
40 m/s
38 m/s
36 m/s
34 m/s
32 m/s
30 m/s
28 m/s
26 m/s
24 m/s
22 m/s
20 m/s
16 m/s
12 m/s
8 m/s
4 m/s
30 m/s
28 m/s
26 m/s
24 m/s
22 m/s
20 m/s
18 m/s
16 m/s
14 m/s
12 m/s
10 m/s
8 m/s
6 m/s
4 m/s
2 m/s
3.0
2.8
2.6
2.4
2.2
2.0
1.8
1.6
1.4
1.2
1.0
0.8
0.6
0.4
0.2
15
14
13
12
11
10
9
8
7
6
5
4
3
2
1